Home > Weather > Zaragoza > Past weeks

Flag for Spain Weather for the Past 2 Weeks in Zaragoza, Spain

Now
46 °F

Light rain. Passing clouds.


Feels Like: 44 °F
Forecast: 41 / 58 °F
Wind: 6 mph from West

Location: Zaragoza / Aeropuerto

Current Time: Feb 11, 2016 at 2:38:19 AM

Latest Report: Feb 11, 2016 at 1:00 AM


Visibility: 5 mi

Pressure: 29.86 "Hg

Humidity: 93%

Dew point: 45 °F

Location of ZaragozaLocation

Historic Weather in Zaragoza — Graph

°F

Zaragoza Temperature Yesterday

Maximum temperature yesterday: 54 °F (at 1:00 PM)
Minimum temperature yesterday: 46 °F (at 12:30 AM)
Average temperature yesterday: 49 °F

High & Low Weather Summary for the Past Weeks

 TemperatureHumidityPressure
High63 °F (Feb 1, 3:00 PM)100% (Jan 27, 1:00 AM)30.63 "Hg (Jan 27, 1:00 AM)
Low32 °F (Feb 5, 5:30 AM)33% (Feb 7, 4:30 PM)29.71 "Hg (Feb 10, 3:30 PM)
Average49 °F78%30.30 "Hg
* Reported Jan 27 1:00 AM — Feb 11 1:00 AM, Zaragoza, Weather by CustomWeather, © 2016

Note: Actual official high and low records may vary slightly from our data, if they occured in-between our weather recording intervals... More about our weather records

Advertising

Zaragoza Weather History for the Previous 24 Hours

 ConditionsComfort  
Time TempWeatherWind HumidityBarometerVisibility
1:00 AM
Thu, Feb 11
46 °FLight rain. Passing clouds.6 mph93%29.86 "Hg5 mi
12:30 AM46 °FLight rain. Passing clouds.6 mph93%29.86 "HgN/A
12:00 AM46 °FLight rain. Partly cloudy.6 mph93%29.83 "Hg6 mi
11:30 PM
Wed, Feb 10
46 °FLight rain. Partly cloudy.7 mph93%29.83 "Hg4 mi
10:30 PM46 °FLight rain. Partly cloudy.6 mph93%29.86 "Hg6 mi
10:00 PM46 °FPartly cloudy.9 mph93%29.83 "HgN/A
9:30 PM48 °FPartly cloudy.10 mph94%29.83 "HgN/A
9:00 PM48 °FLight rain. Passing clouds.12 mph94%29.83 "HgN/A
8:30 PM48 °FLight rain. Passing clouds.16 mph94%29.83 "HgN/A
8:00 PM48 °FLight rain. Passing clouds.15 mph100%29.83 "HgN/A
7:30 PM50 °FLight rain. Passing clouds.15 mph94%29.80 "Hg6 mi
7:00 PM50 °FRain. Passing clouds.15 mph94%29.80 "Hg5 mi
6:30 PM52 °FRain. Passing clouds.5 mph94%29.77 "Hg6 mi
6:00 PM52 °FRain. Partly sunny.No wind88%29.74 "HgN/A
5:30 PM52 °FLight rain. Partly sunny.7 mph88%29.74 "HgN/A
5:00 PM52 °FLight rain. Partly sunny.7 mph82%29.71 "HgN/A
4:30 PM52 °FPartly sunny.10 mph77%29.71 "HgN/A
4:00 PM52 °FPartly sunny.6 mph72%29.71 "HgN/A
3:30 PM52 °FPartly sunny.8 mph72%29.71 "HgN/A
3:00 PM52 °FPartly sunny.5 mph72%29.74 "HgN/A
2:30 PM52 °FLight rain. Partly sunny.7 mph72%29.74 "HgN/A
2:00 PM52 °FPartly sunny.7 mph72%29.77 "HgN/A
1:30 PM52 °FPartly sunny.6 mph72%29.80 "HgN/A
1:00 PM54 °FPartly sunny.6 mph67%29.80 "HgN/A
12:30 PM52 °FPartly sunny.5 mph67%29.83 "HgN/A
12:00 PM50 °FPartly sunny.2 mph71%29.86 "HgN/A
11:30 AM50 °FPartly sunny.No wind71%29.86 "HgN/A
11:00 AM50 °FPartly sunny.No wind71%29.89 "HgN/A
10:30 AM50 °FPartly sunny.5 mph67%29.89 "HgN/A
10:00 AM48 °FPassing clouds.3 mph76%29.89 "HgN/A
9:30 AM48 °FPassing clouds.6 mph76%29.89 "HgN/A
9:00 AM46 °FScattered clouds.5 mph82%29.89 "HgN/A
8:30 AM46 °FScattered clouds.5 mph76%29.89 "HgN/A
8:00 AM46 °FPassing clouds.7 mph76%29.92 "HgN/A
7:30 AM46 °FPartly cloudy.3 mph76%29.92 "HgN/A
7:00 AM46 °FPartly cloudy.9 mph76%29.92 "HgN/A
6:30 AM46 °FPassing clouds.9 mph82%29.92 "HgN/A
6:00 AM46 °FPartly cloudy.8 mph82%29.89 "HgN/A
5:30 AM46 °FPassing clouds.8 mph76%29.92 "HgN/A
5:00 AM46 °FPassing clouds.9 mph76%29.92 "HgN/A
4:30 AM46 °FPassing clouds.13 mph76%29.92 "HgN/A
4:00 AM46 °FPassing clouds.13 mph76%29.92 "HgN/A
3:30 AM48 °FPartly cloudy.14 mph71%29.92 "HgN/A
3:00 AM48 °FPartly cloudy.16 mph71%29.92 "HgN/A
2:30 AM48 °FPartly cloudy.17 mph71%29.92 "HgN/A
Weather by CustomWeather, © 2016

See weather overviewHow to use our weather pages